Location: Boursonne
(49.2024°N, 3.0468°E)
Time: 09:28:36
(UTC+00:00)

CZ-4 R/B - Pass Details

Date: 03 March 2021
Orbit: 532 x 597 km, 97.7° (Epoch: 11 April)

Event Time Altitude Azimuth Distance (km) Brightness Sun altitude
Rises 18:03:05 0° 157° (SSE) 2,670 4.6 -5.5°
Reaches altitude 10° 18:05:11 10° 155° (SSE) 1,788 3.7 -5.8°
Maximum altitude 18:09:00 66° 74° (ENE) 596 1.3 -6.5°
Drops below altitude 10° 18:12:54 10° 352° (N) 1,827 4.1 -7.1°
Sets 18:15:04 0° 349° (N) 2,735 5.0 -7.5°
